Harrisburg, IL

6:16 PM CST on December 15, 2019 (GMT -0600)
Harrisburg-Raleigh

Weather History for KHSB - October, 2019

Change the Weather History Date:

Friday, October 25, 2019

  Actual Average (WUND) Record (WUND)
Temperature  
Mean Temperature 52 °F -  
Max Temperature 56 °F - - (-1)
Min Temperature 48 °F - - (-1)
Degree Days  
Heating Degree Days 13    
Growing Degree Days 2 (Base 50)    
Moisture  
Dew Point 45 °F    
Average Humidity 79    
Maximum Humidity 88    
Minimum Humidity 66    
Precipitation  
Precipitation 0.00 in - - ()
Sea Level Pressure  
Sea Level Pressure 30.24 in    
Wind  
Wind Speed 5 mph ()    
Max Wind Speed 8 mph    
Max Gust Speed -    
Visibility 10.0 miles    
Events Rain    
Averages and records for this station are not official NWS values.
T = Trace of Precipitation, MM = Missing Value Source: Averaged Metar Reports

Daily Weather History Graph

Daily Weather History Graph

Search for Another Location

Airport or City:

Astronomy

Oct. 25, 2019 Rise Set
Actual Time 7:12 AM CDT 6:03 PM CDT
Civil Twilight 6:45 AM CDT 6:30 PM CDT
Nautical Twilight 6:14 AM CDT 7:01 PM CDT
Astronomical Twilight 5:44 AM CDT 7:31 PM CDT
Moon 3:59 AM CDT (10/25) 5:01 PM CDT (10/25)
Length of Visible Light 11h 45m
Length of Day
10h 51m
Waning Crescent, 9% of the Moon is Illuminated
Oct 25
Waning Crescent
Oct 27
New
Nov 4
First Quarter
Nov 12
Full
Nov 19
Last Quarter

Hourly Weather History & Observations

Time (CDT) Temp. Dew Point Humidity Pressure Visibility Wind Dir Wind Speed Gust Speed Precip Events Conditions
12:15 AM 48.7 °F 45.0 °F 87% 30.32 in 10.0 mi Calm Calm - N/A   Overcast
12:35 AM 48.6 °F 45.1 °F 88% 30.32 in 10.0 mi NNW 4.6 mph - N/A   Overcast
12:55 AM 48.7 °F 44.8 °F 86% 30.31 in 10.0 mi North 4.6 mph - N/A   Overcast
1:15 AM 48.7 °F 44.6 °F 86% 30.29 in 10.0 mi North 8.1 mph - N/A   Overcast
1:35 AM 48.9 °F 44.1 °F 83% 30.30 in 10.0 mi North 6.9 mph - N/A   Overcast
1:55 AM 49.1 °F 43.9 °F 82% 30.30 in 10.0 mi North 5.8 mph - N/A   Overcast
2:15 AM 49.1 °F 43.9 °F 82% 30.29 in 10.0 mi NNE 6.9 mph - N/A   Overcast
2:35 AM 49.1 °F 43.9 °F 82% 30.28 in 10.0 mi NNE 8.1 mph - N/A   Overcast
2:55 AM 48.9 °F 43.9 °F 83% 30.29 in 10.0 mi North 5.8 mph - N/A   Overcast
3:15 AM 48.7 °F 44.1 °F 84% 30.29 in 10.0 mi North 4.6 mph - N/A   Overcast
3:35 AM 48.7 °F 43.9 °F 83% 30.29 in 10.0 mi North 8.1 mph - N/A   Overcast
3:55 AM 48.7 °F 43.7 °F 83% 30.28 in 10.0 mi NNE 5.8 mph - N/A   Mostly Cloudy
4:15 AM 48.7 °F 43.3 °F 82% 30.28 in 10.0 mi NNE 5.8 mph - N/A   Mostly Cloudy
4:35 AM 48.6 °F 43.3 °F 82% 30.28 in 10.0 mi NNE 4.6 mph - N/A   Mostly Cloudy
4:55 AM 48.6 °F 43.3 °F 82% 30.28 in 10.0 mi NNE 4.6 mph - N/A   Mostly Cloudy
5:15 AM 48.4 °F 43.3 °F 83% 30.29 in 10.0 mi North 4.6 mph - N/A   Mostly Cloudy
5:35 AM 48.4 °F 43.3 °F 83% 30.29 in 10.0 mi Calm Calm - N/A   Overcast
5:55 AM 48.6 °F 43.2 °F 82% 30.29 in 10.0 mi NE 4.6 mph - N/A   Overcast
6:15 AM 48.6 °F 43.0 °F 81% 30.28 in 10.0 mi NNE 5.8 mph - N/A   Overcast
6:35 AM 48.6 °F 43.0 °F 81% 30.27 in 10.0 mi NE 6.9 mph - N/A   Overcast
6:55 AM 48.4 °F 43.2 °F 82% 30.27 in 10.0 mi NE 3.5 mph - N/A Rain Light Rain
7:15 AM 48.2 °F 43.9 °F 85% 30.29 in 10.0 mi Calm Calm - N/A   Overcast
7:35 AM 48.2 °F 44.1 °F 86% 30.27 in 10.0 mi NE 3.5 mph - N/A   Overcast
7:55 AM 48.2 °F 44.2 °F 86% 30.28 in 10.0 mi NNE 4.6 mph - N/A   Overcast
8:15 AM 48.4 °F 43.9 °F 84% 30.28 in 10.0 mi NNE 5.8 mph - N/A   Overcast
8:35 AM 48.6 °F 44.1 °F 84% 30.29 in 10.0 mi NNE 4.6 mph - N/A   Overcast
8:55 AM 48.9 °F 44.1 °F 83% 30.30 in 10.0 mi Calm Calm - N/A   Overcast
9:15 AM 49.5 °F 44.2 °F 82% 30.30 in 10.0 mi NNE 4.6 mph - N/A   Overcast
9:35 AM 49.6 °F 44.1 °F 81% 30.31 in 10.0 mi NNE 3.5 mph - N/A   Overcast
9:55 AM 50.0 °F 44.4 °F 81% 30.31 in 10.0 mi North 3.5 mph - N/A Rain Light Rain
10:15 AM 50.0 °F 44.8 °F 82% 30.30 in 10.0 mi North 5.8 mph - N/A Rain Light Rain
10:35 AM 50.2 °F 45.1 °F 83% 30.30 in 10.0 mi North 6.9 mph - N/A   Light Drizzle
10:55 AM 50.9 °F 45.5 °F 82% 30.29 in 10.0 mi North 3.5 mph - N/A   Overcast
11:15 AM 51.6 °F 45.3 °F 79% 30.28 in 10.0 mi North 6.9 mph - N/A   Overcast
11:35 AM 51.8 °F 44.6 °F 76% 30.29 in 10.0 mi NNE 6.9 mph - N/A   Overcast
11:55 AM 52.7 °F 44.8 °F 74% 30.29 in 10.0 mi NNE 5.8 mph - N/A   Overcast
12:15 PM 53.1 °F 45.0 °F 74% 30.27 in 10.0 mi NNE 5.8 mph - N/A   Overcast
12:35 PM 53.6 °F 45.0 °F 73% 30.26 in 10.0 mi NNE 6.9 mph - N/A   Overcast
12:55 PM 53.4 °F 45.0 °F 73% 30.24 in 10.0 mi NNE 8.1 mph - N/A   Overcast
1:15 PM 53.6 °F 45.1 °F 73% 30.24 in 10.0 mi NNE 5.8 mph - N/A   Overcast
1:35 PM 54.5 °F 45.5 °F 72% 30.24 in 10.0 mi North 5.8 mph - N/A   Overcast
1:55 PM 54.5 °F 45.7 °F 72% 30.23 in 10.0 mi NNE 5.8 mph - N/A   Overcast
2:15 PM 54.5 °F 45.5 °F 72% 30.20 in 10.0 mi NNE 8.1 mph - N/A   Mostly Cloudy
2:35 PM 55.0 °F 45.7 °F 71% 30.20 in 10.0 mi NNE 6.9 mph - N/A   Scattered Clouds
2:55 PM 55.6 °F 46.0 °F 70% 30.20 in 10.0 mi NE 5.8 mph - N/A   Clear
3:15 PM 55.8 °F 45.7 °F 69% 30.20 in 10.0 mi NNE 6.9 mph - N/A   Clear
3:35 PM 56.3 °F 45.7 °F 68% 30.19 in 10.0 mi NNE 4.6 mph - N/A   Clear
3:55 PM 56.3 °F 45.5 °F 67% 30.19 in 10.0 mi NE 5.8 mph - N/A   Clear
4:15 PM 56.3 °F 46.2 °F 69% 30.20 in 10.0 mi NNE 5.8 mph - N/A   Clear
4:35 PM 56.3 °F 45.1 °F 66% 30.20 in 10.0 mi ENE 5.8 mph - N/A   Clear
4:55 PM 55.9 °F 45.5 °F 68% 30.19 in 10.0 mi NNE 5.8 mph - N/A   Clear
5:15 PM 55.4 °F 45.5 °F 69% 30.18 in 10.0 mi NE 6.9 mph - N/A   Clear
5:35 PM 55.0 °F 46.0 °F 72% 30.20 in 10.0 mi NNE 5.8 mph - N/A   Clear
5:55 PM 54.7 °F 45.9 °F 72% 30.18 in 10.0 mi ENE 4.6 mph - N/A   Clear
6:15 PM 54.5 °F 46.2 °F 74% 30.18 in 10.0 mi NNE 5.8 mph - N/A   Clear
6:35 PM 53.6 °F 46.4 °F 77% 30.18 in 10.0 mi NNE 3.5 mph - N/A   Clear
6:55 PM 53.2 °F 46.8 °F 79% 30.19 in 10.0 mi Calm Calm - N/A   Clear
7:15 PM 52.7 °F 46.9 °F 81% 30.20 in 10.0 mi Calm Calm - N/A   Clear
7:35 PM 52.7 °F 46.9 °F 81% 30.19 in 10.0 mi Calm Calm - N/A   Clear
7:55 PM 52.2 °F 46.9 °F 82% 30.18 in 10.0 mi NNE 4.6 mph - N/A   Scattered Clouds
8:15 PM 52.7 °F 46.9 °F 81% 30.18 in 10.0 mi Calm Calm - N/A   Scattered Clouds
8:35 PM 52.5 °F 47.3 °F 82% 30.17 in 10.0 mi NE 3.5 mph - N/A   Mostly Cloudy
8:55 PM 52.7 °F 47.3 °F 82% 30.17 in 10.0 mi NE 3.5 mph - N/A   Overcast
9:15 PM 52.7 °F 47.3 °F 82% 30.16 in 10.0 mi NE 5.8 mph - N/A   Overcast
9:35 PM 52.7 °F 47.3 °F 82% 30.15 in 10.0 mi NE 5.8 mph - N/A   Overcast
9:55 PM 52.7 °F 47.1 °F 81% 30.14 in 10.0 mi NNE 6.9 mph - N/A   Mostly Cloudy
10:15 PM 52.3 °F 47.3 °F 83% 30.14 in 10.0 mi NNE 6.9 mph - N/A   Scattered Clouds
10:35 PM 52.3 °F 47.3 °F 83% 30.12 in 10.0 mi East 6.9 mph - N/A   Scattered Clouds
10:55 PM 52.3 °F 47.5 °F 84% 30.12 in 10.0 mi NE 4.6 mph - N/A   Scattered Clouds
11:15 PM 52.2 °F 47.7 °F 85% 30.11 in 10.0 mi NNE 6.9 mph - N/A   Clear
11:35 PM 52.7 °F 47.5 °F 82% 30.11 in 10.0 mi NNE 8.1 mph - N/A   Clear
11:55 PM 52.2 °F 47.3 °F 83% 30.09 in 10.0 mi NE 8.1 mph - N/A   Clear